Flag for Russia Weather past 2 weeks in Penza, Russia

Now
61 °F

Sunny.


Feels Like: 61 °F
Forecast: 53 / 77 °F
Wind: 13 mph from Northwest

Location: Saratov / Tsentralny

Current Time: Aug 2, 2015 at 7:59:53 AM

Latest Report: Aug 2, 2015 at 7:30 AM


Visibility: 10 mi

Pressure: 30.09 "Hg

Humidity: 83%

Dew point: 55 °F

Location of PenzaLocation

Historic Weather in Penza — Graph

°F

Penza temperature yesterday

Maximum temperature yesterday: 82 °F (at 5:00 PM)
Minimum temperature yesterday: 61 °F (at 11:00 PM)
Average temperature yesterday: 73 °F

Past Weeks' High & Low Weather Summary

 TemperatureHumidityPressure
High91 °F (Jul 31, 1:00 PM)100% (Jul 18, 11:00 PM)30.07 "Hg (Jul 18, 11:00 PM)
Low55 °F (Aug 2, 4:00 AM)24% (Jul 29, 2:00 PM)29.59 "Hg (Jul 21, 8:00 AM)
Average72 °F57%29.86 "Hg
* Reported Jul 18 6:00 AM — Aug 2 6:00 AM, Penza, Weather by CustomWeather, © 2015

Note: Actual official high and low records may vary slightly from our data, if they occured in-between our weather recording intervals... More about our weather records

Advertising

Penza weather history for previous 24 hours

 ConditionsComfort  
Time TempWeatherWind HumidityBarometerVisibility
6:00 AM
Sun, Aug 2
57 °FSunny.13 mph88%30.07 "Hg10 mi
5:30 AM55 °FSunny.13 mph88%30.07 "Hg10 mi
5:00 AM55 °FClear.13 mph88%30.07 "Hg10 mi
4:30 AM55 °FClear.13 mph94%30.04 "Hg10 mi
4:00 AM55 °FClear.13 mph94%30.04 "Hg10 mi
3:30 AM57 °FClear.10 mph88%30.01 "Hg10 mi
3:00 AM57 °FClear.10 mph88%30.01 "Hg10 mi
2:30 AM57 °FClear.10 mph88%29.98 "Hg10 mi
2:00 AM57 °FClear.13 mph88%29.98 "Hg10 mi
1:00 AM59 °FClear.10 mph82%29.98 "Hg10 mi
12:30 AM61 °FPartly cloudy.13 mph83%29.95 "HgN/A
12:00 AM61 °FPartly cloudy.13 mph83%29.95 "HgN/A
11:30 PM
Sat, Aug 1
61 °FPartly cloudy.13 mph88%29.95 "HgN/A
11:00 PM61 °FPartly cloudy.15 mph88%29.95 "HgN/A
10:30 PM63 °FPassing clouds.15 mph88%29.92 "HgN/A
10:00 PM63 °FPassing clouds.15 mph88%29.92 "HgN/A
9:30 PM64 °FSprinkles. Passing clouds.17 mph83%29.86 "HgN/A
9:00 PM64 °FMostly cloudy.17 mph83%29.86 "HgN/A
8:30 PM68 °FMostly cloudy.17 mph83%29.83 "HgN/A
8:00 PM68 °FMostly cloudy.17 mph83%29.83 "HgN/A
7:30 PM70 °FPartly sunny.17 mph83%29.77 "HgN/A
7:00 PM70 °FPartly sunny.17 mph83%29.77 "HgN/A
6:00 PM72 °FThunderstorms. Partly sunny.15 mph83%29.77 "HgN/A
5:30 PM82 °FThunderstorms. Mostly cloudy.20 mph45%29.77 "HgN/A
5:00 PM82 °FMostly cloudy.8 mph45%29.77 "HgN/A
4:30 PM77 °FMostly cloudy.10 mph61%29.77 "HgN/A
4:00 PM77 °FSprinkles. Mostly cloudy.8 mph61%N/AN/A
3:30 PM81 °FThunderstorms. Mostly cloudy.8 mph54%29.83 "HgN/A
3:00 PM81 °FThunderstorms. Mostly cloudy.13 mph54%29.83 "HgN/A
2:30 PM81 °FMostly cloudy.8 mph62%29.80 "HgN/A
2:00 PM81 °FMostly cloudy.6 mph62%29.80 "HgN/A
1:30 PM77 °FPartly sunny.6 mph69%29.80 "HgN/A
1:00 PM77 °FThunderstorms. Partly sunny.8 mph69%29.80 "HgN/A
12:30 PM81 °FThunderstorms. Mostly cloudy.8 mph54%29.83 "HgN/A
12:00 PM81 °FMostly cloudy.6 mph54%29.83 "HgN/A
11:30 AM79 °FMostly cloudy.1 mph58%29.83 "HgN/A
11:00 AM79 °FSprinkles. Mostly cloudy.8 mph58%29.83 "HgN/A
10:30 AM79 °FMostly cloudy.6 mph65%29.86 "HgN/A
10:00 AM79 °FWarm.10 mph65%29.86 "HgN/A
9:30 AM77 °FPartly sunny.6 mph65%29.83 "HgN/A
9:00 AM77 °FWarm.10 mph65%29.83 "HgN/A
8:30 AM79 °FBroken clouds.10 mph61%29.86 "HgN/A
8:00 AM79 °FScattered clouds.10 mph61%29.86 "HgN/A
7:30 AM75 °FSunny.8 mph69%29.86 "Hg10 mi
7:00 AM75 °FSunny.10 mph69%29.86 "Hg10 mi
Weather by CustomWeather, © 2015

See weather overviewHow to use our weather pages